Location: Austin
(30.3000°N, 97.7500°W)
Time: 04:09:38
(UTC-05:00)

Delta 2 Rocket - Pass Details

Date: 18 March 2023
Orbit: 409 x 752 km, 35.6° (Epoch: 01 April)

Event Time Altitude Azimuth Distance (km) Brightness Sun altitude
Rises 20:21:38 0° 217° (SW) 2,577 7.2 -9.6°
Reaches altitude 10° 20:24:16 10° 201° (SSW) 1,633 5.9 -10.1°
Maximum altitude 20:27:09 21° 150° (SSE) 1,049 4.4 -10.7°
Enters shadow 20:28:46 16° 113° (ESE) 1,233 4.5 -11.1°
